GW7313 Weather Reports


time (UTC)temp
F
wind
direction
speed
knots
gust
knots
rain 1hr
in
rain 24hr
in
rain mn
in
humidity
%
barometer
mb
20260507042620 55 354 0.9 0.9 0.00 0.00 0.00 88 1022.6
20260507041628 56 218 2.6 4.3 0.00 0.00 0.00 88 1022.5
20260507040620 56 228 2.6 6.1 0.00 0.00 0.00 87 1022.5
20260507035628 56 180 1.7 4.3 0.00 0.00 0.00 87 1022.4
20260507034620 56 216 1.7 2.6 0.00 0.00 0.00 87 1022.3
20260507033648 56 248 2.6 4.3 0.00 0.00 0.00 85 1022.2
20260507032652 56 207 2.6 4.3 0.00 0.00 0.00 85 1022.2
20260507031628 57 232 1.7 5.2 0.00 0.00 0.00 84 1022.1
20260507030620 57 213 2.6 4.3 0.00 0.00 0.00 84 1022.1
20260507025628 57 197 2.6 5.2 0.00 0.00 0.00 83 1022.0
20260507024641 57 219 2.6 4.3 0.00 0.00 0.00 84 1022.0
20260507023644 57 181 2.6 5.2 0.00 0.00 0.00 84 1021.9
20260507022702 57 233 2.6 4.3 0.00 0.00 0.00 83 1021.8
20260507021629 57 104 1.7 2.6 0.00 0.00 0.00 83 1021.8
20260507020620 57 199 1.7 4.3 0.00 0.00 0.00 83 1021.8
20260507015649 57 210 3.5 6.1 0.00 0.00 0.00 83 1021.8
20260507014640 57 205 3.5 6.1 0.00 0.00 0.00 83 1021.8
20260507013628 57 203 2.6 7.0 0.00 0.00 0.00 83 1021.9
20260507012620 57 252 1.7 4.3 0.00 0.00 0.00 83 1021.9
20260507011648 57 236 1.7 4.3 0.00 0.00 0.00 83 1021.9
20260507010620 57 227 3.5 6.1 0.00 0.00 0.00 83 1021.9
20260507005710 57 209 4.3 7.8 0.00 0.00 0.00 83 1022.0
20260507004621 57 188 4.3 8.7 0.00 0.00 0.00 83 1022.0
20260507003628 57 218 2.6 5.2 0.00 0.00 0.00 83 1022.0
20260507002620 57 168 4.3 13.0 0.00 0.00 0.00 83 1022.0
20260507001629 57 194 2.6 5.2 0.00 0.00 0.00 83 1022.0
20260507000701 57 224 4.3 11.3 0.00 0.00 0.00 83 1022.0
20260506235628 57 211 4.3 7.0 0.00 0.00 0.00 82 1022.0
20260506234620 57 207 3.5 7.0 0.00 0.00 0.00 82 1022.1
20260506233628 57 211 5.2 9.6 0.00 0.00 0.00 82 1022.1
20260506232620 57 211 3.5 6.1 0.00 0.00 0.00 82 1022.1
20260506231629 57 211 5.2 8.7 0.00 0.00 0.00 81 1022.1
20260506230620 57 210 2.6 4.3 0.00 0.00 0.00 81 1022.2
20260506225628 57 228 5.2 7.8 0.00 0.00 0.00 82 1022.2
20260506224620 57 187 5.2 9.6 0.00 0.00 0.00 81 1022.2
20260506223649 57 231 1.7 8.7 0.00 0.00 0.00 82 1022.2
20260506222620 57 269 2.6 7.0 0.00 0.00 0.00 81 1022.2
20260506221628 58 188 2.6 5.2 0.00 0.00 0.00 79 1022.3
20260506220621 58 208 5.2 9.6 0.00 0.00 0.00 78 1022.3
20260506215628 58 264 3.5 7.0 0.00 0.00 0.00 77 1022.3
20260506214620 58 207 6.1 11.3 0.00 0.00 0.00 78 1022.2
20260506213629 58 212 6.1 9.6 0.00 0.00 0.00 78 1022.3
20260506212620 57 214 6.1 9.6 0.00 0.00 0.00 79 1022.4
20260506211628 58 198 6.1 9.6 0.00 0.00 0.00 78 1022.4
20260506210620 58 211 5.2 8.7 0.00 0.00 0.00 77 1022.4
20260506205628 58 222 5.2 12.2 0.00 0.00 0.00 78 1022.3
20260506204620 58 225 4.3 8.7 0.00 0.00 0.00 78 1022.3
20260506203644 59 268 2.6 5.2 0.00 0.00 0.00 77 1022.2
20260506202621 59 259 1.7 5.2 0.00 0.00 0.00 78 1022.3
20260506201629 58 219 5.2 7.8 0.00 0.00 0.00 78 1022.2
20260506200620 57 200 6.1 12.2 0.00 0.00 0.00 79 1022.2
20260506195649 57 211 4.3 8.7 0.00 0.00 0.00 80 1022.2
20260506194621 57 219 5.2 8.7 0.00 0.00 0.00 81 1022.1
20260506193628 57 223 2.6 6.1 0.00 0.00 0.00 81 1022.1
20260506192620 57 249 4.3 8.7 0.00 0.00 0.00 83 1022.1
20260506191629 57 236 2.6 5.2 0.00 0.00 0.00 83 1022.0
20260506190621 56 204 3.5 7.8 0.00 0.00 0.00 85 1021.9
20260506185629 56 234 2.6 5.2 0.00 0.00 0.00 86 1022.0
20260506184621 56 223 2.6 5.2 0.00 0.00 0.00 86 1021.9
20260506183629 55 215 4.3 7.8 0.00 0.00 0.00 87 1022.1
20260506182620 55 233 3.5 7.8 0.00 0.00 0.00 89 1022.1
20260506181629 54 223 3.5 7.0 0.00 0.00 0.00 90 1022.1
20260506180620 54 327 2.6 4.3 0.00 0.00 0.00 92 1022.1
20260506175628 54 225 2.6 7.0 0.00 0.00 0.00 94 1021.7
20260506174620 55 325 2.6 5.2 0.00 0.00 0.00 94 1021.7
20260506173628 54 229 4.3 7.8 0.00 0.00 0.00 95 1021.6
20260506172702 54 172 2.6 6.1 0.00 0.00 0.00 96 1021.7
20260506171628 54 199 2.6 5.2 0.00 0.00 0.00 97 1021.7
20260506170621 54 201 4.3 7.8 0.00 0.00 0.00 96 1021.9
20260506165644 54 272 2.6 6.1 0.00 0.00 0.00 96 1021.9
20260506164641 54 278 2.6 5.2 0.00 0.00 0.00 95 1021.7
20260506163629 54 257 2.6 4.3 0.00 0.00 0.00 96 1021.8
20260506162641 53 216 2.6 5.2 0.00 0.00 0.00 96 1021.5
20260506161629 53 213 5.2 7.8 0.00 0.00 0.00 96 1021.3
20260506160640 53 199 4.3 7.0 0.00 0.00 0.00 97 1021.1
20260506155628 53 217 5.2 9.6 0.00 0.00 0.00 98 1021.2
20260506154621 53 208 5.2 8.7 0.00 0.00 0.00 99 1021.2
20260506153628 53 226 3.5 6.1 0.00 0.00 0.00 99 1021.3
20260506152621 52 149 1.7 2.6 0.00 0.00 0.00 99 1021.5
20260506151629 53 233 2.6 5.2 0.00 0.00 0.00 99 1021.4
20260506150621 53 239 2.6 4.3 0.00 0.00 0.00 99 1021.3
20260506145630 53 190 2.6 4.3 0.00 0.00 0.00 99 1021.0
20260506144621 53 345 0.9 1.7 0.00 0.00 0.00 99 1021.2
20260506143629 53 244 1.7 4.3 0.00 0.00 0.00 98 1021.2
20260506142621 53 305 1.7 4.3 0.00 0.00 0.00 97 1021.3
20260506141628 53 265 2.6 5.2 0.00 0.00 0.00 97 1021.2
20260506140621 53 278 1.7 2.6 0.00 0.00 0.00 97 1020.9
20260506135629 53 192 1.7 4.3 0.00 0.00 0.00 97 1020.9
20260506134657 53 262 1.7 2.6 0.00 0.00 0.00 96 1021.0
20260506133629 53 325 0.9 1.7 0.00 0.00 0.00 96 1020.8
20260506132621 53 265 2.6 4.3 0.00 0.00 0.00 95 1020.9
20260506131629 53 233 3.5 6.1 0.00 0.00 0.00 95 1020.8
20260506130621 53 278 0.9 2.6 0.00 0.00 0.00 95 1020.8
20260506125645 54 159 2.6 6.1 0.00 0.00 0.00 95 1020.2
20260506124621 53 198 2.6 6.1 0.00 0.00 0.00 95 1020.5
20260506123710 54 215 3.5 5.2 0.00 0.00 0.00 95 1020.3
20260506122621 54 219 3.5 6.1 0.00 0.00 0.00 94 1020.3
20260506121649 54 234 2.6 6.1 0.00 0.00 0.00 94 1020.2
20260506120621 54 220 2.6 6.1 0.00 0.00 0.00 94 1020.2
20260506115629 54 219 3.5 7.0 0.00 0.00 0.00 93 1020.1
20260506114621 54 234 2.6 5.2 0.00 0.00 0.00 93 1020.0
20260506113629 54 205 3.5 5.2 0.00 0.00 0.00 93 1019.9
20260506112621 54 233 3.5 6.1 0.00 0.00 0.00 93 1019.9
20260506111629 54 213 3.5 6.1 0.00 0.00 0.00 93 1019.8
20260506110621 54 221 1.7 4.3 0.00 0.00 0.00 93 1019.8
20260506105629 54 191 2.6 4.3 0.00 0.00 0.00 93 1019.7
20260506104641 54 218 2.6 5.2 0.00 0.00 0.00 93 1019.7
20260506103629 54 263 0.9 2.6 0.00 0.00 0.00 94 1019.6
20260506102621 54 299 1.7 2.6 0.00 0.00 0.00 93 1019.6
20260506101629 54 313 0.9 2.6 0.00 0.00 0.00 93 1019.5
20260506100637 54 253 1.7 4.3 0.00 0.00 0.00 93 1019.5
20260506095629 54 261 2.6 4.3 0.00 0.00 0.00 92 1019.5
20260506094621 54 303 1.7 1.7 0.00 0.00 0.00 92 1019.3
20260506093629 54 277 3.5 7.0 0.00 0.00 0.00 92 1019.2
20260506092621 54 212 2.6 5.2 0.00 0.00 0.00 92 1019.2
20260506091629 55 213 3.5 6.1 0.00 0.00 0.00 92 1019.1
20260506090621 54 294 0.9 1.7 0.00 0.00 0.00 92 1019.0
20260506085629 54 227 2.6 5.2 0.00 0.00 0.00 92 1019.0
20260506084621 55 204 1.7 5.2 0.00 0.00 0.00 92 1018.9
20260506083650 55 237 2.6 5.2 0.00 0.00 0.00 91 1018.8
20260506082621 55 202 3.5 7.8 0.00 0.00 0.00 91 1018.7
20260506081629 55 222 0.9 5.2 0.00 0.00 0.00 91 1018.6
20260506080621 56 212 3.5 6.1 0.00 0.00 0.00 90 1018.5
20260506072641 56 202 1.7 5.2 0.00 0.00 0.00 91 1018.3
20260506071629 55 311 0.9 1.7 0.00 0.00 0.00 92 1018.3
20260506070621 56 296 0.9 1.7 0.00 0.00 0.00 91 1018.3
20260506061629 58 258 2.6 4.3 0.00 0.00 0.00 86 1017.9
20260506060621 59 216 0.9 2.6 0.00 0.00 0.00 85 1017.7
20260506050622 60 188 3.5 6.1 0.00 0.00 0.00 83 1017.1
20260506044621 61 218 1.7 6.1 0.00 0.00 0.00 83 1017.0
20260506043629 61 209 1.7 4.3 0.00 0.00 0.00 83 1017.0